SL-12 DEB, 44560

Orbit data source: Space-Track

SL-12 DEB, 44560 is space debris in HEO originally from a launch on Thu, 02 Sep 2010 UTC launched from the Tyuratam Missile And Space Complex (TTMTR). Debris objects in space refer to the collection of defunct objects orbiting the Earth. Examples of debris include non-operational satellites, rocket bodies, and fragments generated from explosions, collisions, or faulty payload assembly.

Loading next visibility...
Identifier
44560, 2010-041AF
Orbit
HEO
Country
Flag of CISCIS
Related business
Manufacturer
RKKE
Mission
Spacecraft
Bus & Motor
Unknown
Mass
Unknown
Launch date (UTC)
2010-09-02 (16 years ago)
Launch vehicle
Unknown
Launch site
Tyuratam Missile And Space Complex (TTMTR)
Object type
Payload
Rocket body
Debris
Shape & HBR
Unknown shape, 0.7 m
Radar Cross Section
Medium (>0.1 m² and <1 m²)

Expand to show TLE details & history
Last TLE update: 4 days ago

TLE from 4 days ago
0 SL-12 DEB
1 44560U 10041AF  26123.65902930 -.00000297  00000-0 -77138-3 0  9992
2 44560  65.3150  47.3873 5481258 269.2056  31.0308  4.57484261108641
Epoch: 2026-05-03T15:49Z
TLE epoch observation values (Epoch: 2026-05-03T15:49:00.131Z)
Latitude
-0°
Longitude
-51.42116°
Altitude
4,446.542 km
Speed
6.903 km/s
True Right ascension
03h 09m 33s
True Declination
0° 00' 00"
Sunlit
Object was in daylight at epoch
Visualization orbit readout
Latitude
Unknown
Longitude
Unknown
Altitude
Unknown
Speed
Unknown
Apparent Right ascension
Unknown
Apparent Declination
Unknown
Sunlit
N/A
Visualization observer readout
Local Sidereal Time
05:15:12
Azimuth
Unknown
Elevation
Unknown
Doppler factor
Unknown
Orbital elements
Apogee altitude
17,349.678 km
Perigee altitude
547.649 km
Semi-major axis
15,326.8 km
Eccentricity
0.54813
Inclination
65.315°
RAAN
47.3873°
Arg. of periapsis
269.2056°
True anomaly
90.9091°
Mean anomaly
31.0308°
Eccentric anomaly
57.52517°
Mean motion
1.14384 °/min
Orbital period
314.73 mins
BSTAR
-0.00077138
Loading maneuver chart data...
Computing Atmospheric mass density...
Loading historical data...
Loading historical data...
Loading historical data...
Loading historical data...
Loading historical data...
Loading historical data...
Loading historical data...

Documentation

Showing up to 5 results
|